Tracking 30743 objects as of 20-Jun-2025
HD Live streaming from Space Station
objects crossing your sky now

SL-14 DEB

Track SL-14 DEB now!
10-day predictions


NORAD ID: 45327
Int'l Code: 1991-056BR
Perigee: 1,058.6 km
Apogee: 1,175.9 km
Inclination: 82.6 °
Period: 107.5 minutes
Semi major axis: 7488 km
RCS: Unknown
Launch date: August 15, 1991
Source: Commonwealth of Independent States (former USSR) (CIS)
Launch site: PLESETSK MISSILE AND SPACE COMPLEX (PKMTR)

Note: This is SATELLITE DEBRIS
Your satellite tracking list
Your tracking list is empty




NASA's NSSDC Master Catalog

Two Line Element Set (TLE):
1 45327U 91056BR  25170.46848380  .00000993  00000-0  17744-2 0  9994
2 45327  82.5659 349.2148 0078330  81.0725 279.9267 13.39782303260945
Source of the keplerian elements: AFSPC